Other Surface Observations
Issued by NWS

Home | Current Version | Previous Version | Text Only | Print | Product List | Glossary On
Versions: 1 2 3 4 5 6 7 8 9 10 11 12 13 14 15 16 17 18 19 20 21 22 23 24 25 26 27 28 29 30 31 32 33 34 35 36 37 38 39 40 41 42 43 44 45 46 47 48 49 50
926
SXUS52 KTAE 281718
OSOTAE
OSOTAE
North Florida/South Alabama/Southwest Georgia Weather Roundup
National Weather Service Tallahassee Florida
100 PM EDT SUN AUG 28 2016

Note: "fair" indicates few or no clouds below 12,000 feet with no
significant weather and/or obstructions to visibility.

!FLZ017-115-028-034-025-281800
...North Florida...

CITY           SKY/WX    TMP DP  RH WIND       PRES   REMARKS
TALLAHASSEE    MOSUNNY   91  74  57 E9        30.03F HX 100
APALACHICOLA   MOSUNNY   89  81  77 SE13G18   30.02F HX 108
PERRY          PTSUNNY   91  75  57 E8        30.03F HX 102
CROSS CITY     SUNNY     90  75  62 E8        30.01F HX 100
JACKSONVILLE   MOSUNNY   90  72  55 E14G23    30.04F HX  97
$$

!FLZ112-006-005-002-011-281800
...Florida Panhandle...

CITY           SKY/WX    TMP DP  RH WIND       PRES   REMARKS
MARIANNA       MOSUNNY   89  75  63 VRB6      30.04F HX  99
BONIFAY        FAIR      88  75  65 E7        30.05F HX  97
PANAMA CITY NW PTSUNNY   90  74  59 E9        30.01F HX  99
TYNDALL AFB    MOSUNNY   89  75  62 NE9         N/A  HX  99
TYND DRONE APT FAIR      89  76  64 E10       30.01F HX  99
DE FUNIAK SPR  PTSUNNY   87  73  61 E12       30.05F HX  94
EGLIN AFB      PTSUNNY   90  75  62 E9        30.02F HX 100
DESTIN         PTSUNNY   92  77  61 SE9       30.02F HX 105
HURLBURT       MOSUNNY   87  75  67 E12       30.01F HX  97
CRESTVIEW      PTSUNNY   88  75  65 E7        30.05F HX  97
PENSACOLA      MOSUNNY   87  77  72 SE12      30.03S HX  99
$$

!ALZ063-066-281800
...South Alabama...

CITY           SKY/WX    TMP DP  RH WIND       PRES   REMARKS
DOTHAN         MOSUNNY   87  76  69 E8        30.10F HX  97
OZARK CAIRNS   MOSUNNY   88  75  64 E8        30.06F HX  98
FT RUCKER HELI MOSUNNY   88  74  63 VRB7      30.05F HX  96
RUCKER HELI 3  NOT AVBL
RUCKER HELI 2  PTSUNNY   89  73  59 SE10      30.06F HX  97
FLORALA APT    MOSUNNY   87  73  62 E9G18     30.07F HX  94
ANDALUSIA      PTSUNNY   92  73  53 E12G20    30.06F HX 100
TROY           MOSUNNY   89  72  56 SE12G18   30.09F HX  96
EUFALA         FAIR      95  69  42 E10       30.08F HX 100
MOBILE         CLOUDY    87  74  64 E7        30.04F HX  95
$$

!GAZ120>161-281800
...Southwest and South Central Georgia...

CITY           SKY/WX    TMP DP  RH WIND       PRES   REMARKS
THOMASVILLE    FAIR      90  73  58 E10       30.07F HX  98
BAINBRIDGE     MOSUNNY   91  72  52 E9        30.05F HX  98
MOODY AFB      MOSUNNY   89  68  49 NE10      30.05F HX  92
VALDOSTA       PTSUNNY   89  73  59 VRB7      30.05F HX  97
MOULTRIE       MOSUNNY   90  70  51 NE5       30.07F HX  95
BLAKELY        MOSUNNY   91  70  49 E8        30.07F HX  97
ALBANY         PTSUNNY   91  67  44 E10       30.09F HX  94
TIFTON         PTSUNNY   89  68  49 E6G16     30.08F HX  93
FITZGERALD     PTSUNNY   91  73  55 NE8       30.11S HX 100
CORDELE        FAIR      92  68  46 E10G17    30.10F HX  96
AMERICUS       FAIR      90  61  37 E12       30.12F
HOMERVILLE     FAIR      91  70  49 E6        30.06F HX  97
$$

!GMZ750-755-770-775-281800
...Coastal and Buoy Obs...

STATION/POSITION TIME  TEMP    WIND        PRES    VSBY  WAVE
                       AIR SEA DIR/SP/G                  HT/PER
                 (UTC) (F)     (DEG/KT/KT) (MB)    (MI)  (FT/S)
KEATON BEACH     1700   88      70/ 10/ 14 1016.0F
CEDAR KEY        1700   87      90/  9/ 10 1016.0F
C TOWER          1700   83      90/ 16/ 18 1016.7F
APALACHICOLA BUO 1650   85 85   90/ 16/ 19 1015.1F         4/ 5
PANAMA CITY BUOY 1650   80 85  100/ 10/ 12 1015.9F         3/ 5
MOBILE BUOY      1700   85 86   90/ 12/ 14 1015.3F
ORANGE BCH AL BU 1650   83 85   80/ 16/ 17 1016.3R         3/ 5
$$




USA.gov is the U.S. government's official web portal to all federal, state and local government web resources and services.